KAFASAT
1 58317U 23174BP  24217.80852480  .00068691  00000-0  25496-2 0  9990
2 58317  97.4530 293.0052 0010412  55.7771 304.4453 15.27265240 41175
ENSO
1 58470U 23185J   24217.84976494  .00046294  00000-0  18353-2 0  9997
2 58470  97.4238 284.1111 0013479 109.1657 251.1041 15.25154893 37557
EIRSAT-1
1 58472U 23185L   24217.86761116  .00054304  00000-0  21006-2 0  9994
2 58472  97.4231 284.2158 0012926 110.1936 250.0694 15.25939503 37564
SO-121
1 58567U 23174CY  24217.17728102  .00088869  00000-0  25165-2 0  9992
2 58567  97.4509 293.2414 0008967  66.3958 293.8226 15.35899860 41134
SONATE-2
1 59112U 24043Q   24217.31800241  .00016297  00000-0  75934-3 0  9992
2 59112  97.4835 340.6882 0015591 125.3257 234.9438 15.19864727 23113
KASHIWA
1 59508U 98067WH  24217.79330243  .01169686  71043-3  22206-2 0  9993
2 59508  51.6184  59.8645 0010234 244.9063 115.0886 16.00107760 18173
MESAT1
1 60209U 24125G   24217.56031953  .00017788  00000-0  82269-3 0  9990
2 60209  97.3188  69.5039 0027380 151.6809 208.5921 15.19866780  4762
GRBBeta
1 60237U 24128C   24217.57981284  .00006297  00000-0  55899-3 0  9998
2 60237  61.9944  72.6512 0011192 301.6577  58.3419 14.97078382  3843
ROBUSTA-3A
1 60243U 24128J   24217.59934090  .00009562  00000-0  86250-3 0  9993
2 60243  61.9920  72.7307 0012816 273.4496  86.5125 14.96009063  3854
CatSat
1 60246U 24125J   24217.83804274  .00021596  00000-0  97945-3 0  9994
2 60246  97.3011  71.0829 0054272 105.7043 255.0188 15.19493653  2926
